Location: Newark
(41.0400°S, 62.7845°W)
Time: 01:38:02
(UTC+00:00)

DIWATA 2B (PO-101) - Pass Details

Date: 03 February 2022
Orbit: 584 x 599 km, 98.0° (Epoch: 16 May)

Event Time Altitude Azimuth Distance (km) Brightness Sun altitude
Rises 05:49:09 0° 153° (SSE) 2,864 ? -29.2°
Reaches altitude 10° 05:51:46 10° 137° (SE) 1,949 ? -29.0°
Enters shadow 05:54:43 21° 93° (E) 1,345 ? -28.8°
